Вернуться в каталог

HAWK-12B

АктивенНаукаSSO
NORAD 64622·PAYLOAD·🇺🇸 United States

Запущен Jun 26, 2025 с Rocket Lab Launch Complex 1

Loading…

Ближайшие Пролёты (ближайшие 24 часа)

TLE

СвежийSource: Space-Track

Эпоха: Sep 14, 2026, 11:07 UTC

1 64622U 25138B   26257.46370201  .00002822  00000-0  13880-3 0  9991
2 64622  97.4513 259.2392 0012707 179.3535 180.7718 15.18774570 67418

Отслеживайте HAWK-12B в реальном времени с AllMySat

Download on the App Store